This is the latest recevied weather packets stored in our database for station/object K2HF. If no packets are shown the sender has not sent any weather packets the latest 1 day(s).
| Time | Temp. | Humidity | Pressure | Rain* | Wind** | Luminosity | Snow |
|---|---|---|---|---|---|---|---|
| 1778083702 | 17.78° C | 12% | 1009.4 hPa | 0 mm | - | - | - |
| 1778083570 | 17.78° C | 16% | 1009.5 hPa | 0 mm | - | - | - |
| 1778083451 | 17.78° C | 14% | 1009.7 hPa | 0 mm | - | - | - |
| 1778083270 | 17.78° C | 9% | 1009.6 hPa | 0 mm | - | - | - |
| 1778082670 | 17.78° C | 5% | 1009.9 hPa | 0 mm | - | - | - |
| 1778082551 | 17.78° C | 100% | 1010 hPa | 0 mm | - | - | - |
| 1778082499 | 17.78° C | 100% | 1010 hPa | 0 mm | - | - | - |
| 1778082310 | 17.22° C | 100% | 1010 hPa | 0 mm | - | - | - |
| 1778081410 | 17.22° C | 100% | 1009.9 hPa | 0 mm | - | - | - |
| 1778080690 | 17.22° C | 4% | 1009.8 hPa | 0 mm | - | - | - |
| 1778080632 | 17.22° C | 5% | 1009.8 hPa | 0 mm | - | - | - |
| 1778080571 | 17.22° C | 6% | 1009.8 hPa | 0 mm | - | - | - |
| 1778080210 | 17.22° C | 13% | 1009.8 hPa | 0 mm | - | - | - |
| 1778080150 | 17.22° C | 13% | 1009.8 hPa | 0 mm | - | - | - |
| 1778080100 | 17.22° C | 13% | 1009.8 hPa | 0 mm | - | - | - |
| 1778079670 | 17.78° C | 18% | 1010 hPa | 0 mm | - | - | - |
| 1778079611 | 17.78° C | 18% | 1010 hPa | 0 mm | - | - | - |
| 1778079186 | 18.33° C | 23% | 1009.8 hPa | 0 mm | - | - | - |
| 1778079070 | 18.33° C | 24% | 1009.9 hPa | 0 mm | - | - | - |
| 1778079011 | 18.33° C | 22% | 1009.8 hPa | 0 mm | - | - | - |
| 1778078950 | 18.33° C | 21% | 1009.7 hPa | 0 mm | - | - | - |
| 1778078710 | 18.33° C | 24% | 1009.8 hPa | 0 mm | - | - | - |
| 1778078650 | 18.33° C | 26% | 1009.9 hPa | 0 mm | - | - | - |
| 1778078599 | 18.33° C | 26% | 1009.8 hPa | 0 mm | - | - | - |
| 1778078585 | 18.33° C | 26% | 1009.8 hPa | 0 mm | - | - | - |
* Rain latest hour (hover to see other rain measurements)
** Current wind speed in m/s (hover to see current wind gust speed)